UAL154 PKMJ-PKWA

Flight info

Callsign UAL154
Flight time 0h 44m
Altitude 28000
Route OREEO
Aircraft B38M/M-SDE1FGHILORVWXY/HB1

Departure

Time 2026-04-29 00:28
Airport Marshall Islands International Airport (PKMJ)

Arrival

Time 2026-04-29 01:12
Airport Bucholz Army Air Field (PKWA)
Time Latitude Longitude Altitude Speed Heading
2026-04-28 23:57 7.06842 171.28189 4 ft 0 kts 123°
2026-04-29 00:23 7.06841 171.28190 7 ft 1 kts 123°
2026-04-29 00:23 7.06828 171.28204 8 ft 4 kts 142°
2026-04-29 00:23 7.06794 171.28215 7 ft 6 kts 168°
2026-04-29 00:24 7.06746 171.28209 8 ft 8 kts 228°
2026-04-29 00:24 7.06728 171.28145 6 ft 12 kts 256°
2026-04-29 00:24 7.06706 171.28051 4 ft 16 kts 256°
2026-04-29 00:24 7.06677 171.27931 4 ft 19 kts 256°
2026-04-29 00:25 7.06644 171.27799 5 ft 20 kts 256°
2026-04-29 00:25 7.06608 171.27649 3 ft 24 kts 256°
2026-04-29 00:25 7.06566 171.27479 3 ft 26 kts 256°
2026-04-29 00:25 7.06522 171.27298 4 ft 28 kts 256°
2026-04-29 00:26 7.06475 171.27102 8 ft 29 kts 256°
2026-04-29 00:26 7.06425 171.26895 3 ft 32 kts 256°
2026-04-29 00:26 7.06369 171.26668 1 ft 33 kts 256°
2026-04-29 00:26 7.06316 171.26448 0 ft 31 kts 256°
2026-04-29 00:27 7.06274 171.26277 1 ft 20 kts 256°
2026-04-29 00:27 7.06268 171.26169 1 ft 11 kts 227°
2026-04-29 00:27 7.06250 171.26182 1 ft 3 kts 77°
2026-04-29 00:27 7.06281 171.26309 1 ft 52 kts 76°
2026-04-29 00:28 7.06429 171.26916 4 ft 124 kts 76°
2026-04-29 00:28 7.06678 171.27939 160 ft 167 kts 76°
2026-04-29 00:28 7.06967 171.29075 990 ft 168 kts 76°
2026-04-29 00:28 7.07296 171.30227 1870 ft 174 kts 68°
2026-04-29 00:29 7.07990 171.31252 2661 ft 183 kts 46°
2026-04-29 00:29 7.09111 171.31931 3392 ft 196 kts 22°
2026-04-29 00:29 7.10508 171.32087 4113 ft 211 kts 357°
2026-04-29 00:29 7.11930 171.31602 4804 ft 228 kts 328°
2026-04-29 00:30 7.13042 171.30360 5257 ft 255 kts 297°
2026-04-29 00:30 7.13554 171.28581 5772 ft 275 kts 279°
2026-04-29 00:30 7.13850 171.26619 6335 ft 291 kts 278°
2026-04-29 00:30 7.14153 171.24592 7142 ft 293 kts 278°
2026-04-29 00:31 7.14467 171.22554 7957 ft 298 kts 278°
2026-04-29 00:31 7.14797 171.20472 8742 ft 301 kts 278°
2026-04-29 00:31 7.15129 171.18399 9671 ft 301 kts 278°
2026-04-29 00:31 7.15549 171.16307 10284 ft 313 kts 287°
2026-04-29 00:32 7.16435 171.14233 10680 ft 331 kts 294°
2026-04-29 00:32 7.17392 171.12079 11234 ft 340 kts 292°
2026-04-29 00:32 7.18340 171.09893 12084 ft 341 kts 292°
2026-04-29 00:32 7.19285 171.07686 12869 ft 347 kts 292°
2026-04-29 00:33 7.20239 171.05431 13626 ft 351 kts 292°
2026-04-29 00:33 7.21194 171.03166 14434 ft 353 kts 292°
2026-04-29 00:33 7.22161 171.00868 15099 ft 360 kts 291°
2026-04-29 00:33 7.23144 170.98531 15837 ft 362 kts 292°
2026-04-29 00:34 7.24133 170.96178 16513 ft 369 kts 292°
2026-04-29 00:34 7.25140 170.93783 17213 ft 372 kts 292°
2026-04-29 00:34 7.26154 170.91372 17889 ft 377 kts 292°
2026-04-29 00:34 7.27189 170.88908 18363 ft 386 kts 292°
2026-04-29 00:35 7.28241 170.86404 18919 ft 389 kts 293°
2026-04-29 00:35 7.29293 170.83900 19597 ft 388 kts 293°
2026-04-29 00:35 7.30350 170.81384 20118 ft 393 kts 293°
2026-04-29 00:35 7.31421 170.78831 20664 ft 396 kts 293°
2026-04-29 00:36 7.32492 170.76280 21309 ft 396 kts 293°
2026-04-29 00:36 7.33572 170.73709 21761 ft 402 kts 293°
2026-04-29 00:36 7.34652 170.71135 22214 ft 407 kts 294°
2026-04-29 00:36 7.35754 170.68508 22800 ft 407 kts 294°
2026-04-29 00:37 7.36864 170.65863 23250 ft 413 kts 294°
2026-04-29 00:37 7.37983 170.63195 23735 ft 414 kts 294°
2026-04-29 00:37 7.39111 170.60503 24122 ft 418 kts 293°
2026-04-29 00:37 7.40241 170.57809 24577 ft 419 kts 294°
2026-04-29 00:38 7.41381 170.55090 24970 ft 422 kts 294°
2026-04-29 00:38 7.42525 170.52359 25433 ft 423 kts 293°
2026-04-29 00:38 7.43673 170.49622 25836 ft 426 kts 294°
2026-04-29 00:38 7.44816 170.46847 26178 ft 430 kts 292°
2026-04-29 00:39 7.45919 170.44042 26620 ft 432 kts 292°
2026-04-29 00:39 7.47037 170.41210 26930 ft 437 kts 292°
2026-04-29 00:39 7.48164 170.38363 27398 ft 438 kts 292°
2026-04-29 00:39 7.49294 170.35508 27785 ft 441 kts 292°
2026-04-29 00:40 7.50438 170.32616 27915 ft 449 kts 292°
2026-04-29 00:40 7.51606 170.29667 27885 ft 457 kts 292°
2026-04-29 00:40 7.52787 170.26680 27889 ft 461 kts 292°
2026-04-29 00:40 7.53973 170.23682 27895 ft 460 kts 292°
2026-04-29 00:41 7.55160 170.20681 27894 ft 462 kts 292°
2026-04-29 00:41 7.56347 170.17674 27902 ft 461 kts 292°
2026-04-29 00:41 7.57532 170.14678 27893 ft 460 kts 292°
2026-04-29 00:41 7.58717 170.11680 27907 ft 459 kts 292°
2026-04-29 00:42 7.59898 170.08691 27895 ft 459 kts 292°
2026-04-29 00:42 7.61080 170.05698 27898 ft 461 kts 292°
2026-04-29 00:42 7.62263 170.02703 27897 ft 461 kts 292°
2026-04-29 00:42 7.63448 169.99701 27904 ft 460 kts 292°
2026-04-29 00:43 7.64633 169.96698 27899 ft 460 kts 292°
2026-04-29 00:43 7.65815 169.93702 27896 ft 461 kts 292°
2026-04-29 00:43 7.66998 169.90704 27900 ft 459 kts 292°
2026-04-29 00:43 7.68162 169.87753 27896 ft 459 kts 292°
2026-04-29 00:44 7.69343 169.84759 27899 ft 460 kts 292°
2026-04-29 00:44 7.70525 169.81761 27893 ft 460 kts 292°
2026-04-29 00:44 7.71709 169.78756 27898 ft 462 kts 291°
2026-04-29 00:44 7.72893 169.75751 27898 ft 460 kts 291°
2026-04-29 00:45 7.74076 169.72750 27892 ft 461 kts 291°
2026-04-29 00:45 7.75257 169.69752 27893 ft 460 kts 291°
2026-04-29 00:45 7.76436 169.66757 27894 ft 460 kts 291°
2026-04-29 00:45 7.77616 169.63759 27895 ft 460 kts 291°
2026-04-29 00:46 7.78797 169.60759 27894 ft 460 kts 291°
2026-04-29 00:46 7.79981 169.57752 27895 ft 462 kts 291°
2026-04-29 00:46 7.81161 169.54750 27894 ft 460 kts 291°
2026-04-29 00:46 7.82343 169.51748 27893 ft 461 kts 291°
2026-04-29 00:47 7.83521 169.48750 27895 ft 459 kts 291°
2026-04-29 00:47 7.84698 169.45757 27894 ft 460 kts 291°
2026-04-29 00:47 7.85877 169.42756 27897 ft 460 kts 291°
2026-04-29 00:47 7.87056 169.39758 27895 ft 460 kts 291°
2026-04-29 00:48 7.88233 169.36760 27896 ft 460 kts 291°
2026-04-29 00:48 7.89411 169.33763 27894 ft 460 kts 291°
2026-04-29 00:48 7.90588 169.30764 27894 ft 460 kts 291°
2026-04-29 00:48 7.91764 169.27769 27896 ft 460 kts 291°
2026-04-29 00:49 7.92940 169.24771 27895 ft 460 kts 291°
2026-04-29 00:49 7.94118 169.21770 27895 ft 460 kts 291°
2026-04-29 00:49 7.95295 169.18771 27895 ft 460 kts 291°
2026-04-29 00:49 7.96471 169.15771 27896 ft 460 kts 291°
2026-04-29 00:50 7.97646 169.12775 27893 ft 460 kts 291°
2026-04-29 00:50 7.98822 169.09777 27897 ft 460 kts 291°
2026-04-29 00:50 7.99997 169.06778 27897 ft 459 kts 291°
2026-04-29 00:50 8.01172 169.03779 27897 ft 460 kts 291°
2026-04-29 00:51 8.02335 169.00810 27537 ft 453 kts 291°
2026-04-29 00:51 8.03494 168.97852 26814 ft 454 kts 291°
2026-04-29 00:51 8.04652 168.94893 26288 ft 451 kts 291°
2026-04-29 00:51 8.05801 168.91960 25805 ft 448 kts 292°
2026-04-29 00:52 8.06940 168.89050 25306 ft 445 kts 292°
2026-04-29 00:52 8.08072 168.86155 24812 ft 442 kts 292°
2026-04-29 00:52 8.09196 168.83282 24323 ft 439 kts 292°
2026-04-29 00:52 8.10315 168.80420 23841 ft 437 kts 292°
2026-04-29 00:53 8.11413 168.77611 23345 ft 435 kts 292°
2026-04-29 00:53 8.12535 168.74742 22792 ft 432 kts 292°
2026-04-29 00:53 8.13633 168.71931 22312 ft 428 kts 292°
2026-04-29 00:53 8.14720 168.69150 21854 ft 424 kts 292°
2026-04-29 00:54 8.15783 168.66430 21407 ft 421 kts 292°
2026-04-29 00:54 8.16851 168.63694 20960 ft 417 kts 292°
2026-04-29 00:54 8.17910 168.60982 20513 ft 414 kts 292°
2026-04-29 00:54 8.18963 168.58284 20078 ft 411 kts 292°
2026-04-29 00:55 8.20007 168.55609 19655 ft 409 kts 292°
2026-04-29 00:55 8.21047 168.52944 19206 ft 407 kts 292°
2026-04-29 00:55 8.22081 168.50293 18772 ft 405 kts 291°
2026-04-29 00:55 8.23110 168.47655 18343 ft 403 kts 291°
2026-04-29 00:56 8.24131 168.45035 17871 ft 399 kts 291°
2026-04-29 00:56 8.25136 168.42457 17427 ft 390 kts 291°
2026-04-29 00:56 8.26118 168.39938 17010 ft 381 kts 291°
2026-04-29 00:56 8.27076 168.37479 16605 ft 373 kts 291°
2026-04-29 00:57 8.28015 168.35069 16213 ft 367 kts 290°
2026-04-29 00:57 8.28947 168.32676 15817 ft 365 kts 290°
2026-04-29 00:57 8.29573 168.31070 15550 ft 364 kts 290°
2026-04-29 00:57 8.30484 168.28731 15172 ft 362 kts 290°
2026-04-29 00:58 8.31402 168.26372 14779 ft 360 kts 289°
2026-04-29 00:58 8.32318 168.24019 14397 ft 359 kts 289°
2026-04-29 00:58 8.33228 168.21680 14017 ft 357 kts 289°
2026-04-29 00:58 8.34135 168.19349 13623 ft 356 kts 289°
2026-04-29 00:59 8.35040 168.17026 13193 ft 354 kts 289°
2026-04-29 00:59 8.35938 168.14718 12793 ft 352 kts 289°
2026-04-29 00:59 8.36830 168.12424 12404 ft 350 kts 289°
2026-04-29 00:59 8.37715 168.10146 12031 ft 347 kts 289°
2026-04-29 01:00 8.38594 168.07884 11642 ft 345 kts 289°
2026-04-29 01:00 8.39467 168.05640 11258 ft 342 kts 289°
2026-04-29 01:00 8.40334 168.03409 10884 ft 340 kts 289°
2026-04-29 01:00 8.41195 168.01192 10530 ft 337 kts 290°
2026-04-29 01:01 8.42043 167.99010 10343 ft 329 kts 290°
2026-04-29 01:01 8.42866 167.96891 10200 ft 320 kts 290°
2026-04-29 01:01 8.43666 167.94830 10049 ft 311 kts 289°
2026-04-29 01:01 8.44449 167.92816 9815 ft 306 kts 289°
2026-04-29 01:02 8.45222 167.90820 9446 ft 305 kts 290°
2026-04-29 01:02 8.45997 167.88826 9069 ft 304 kts 290°
2026-04-29 01:02 8.46763 167.86852 8719 ft 299 kts 289°
2026-04-29 01:02 8.47513 167.84921 8393 ft 292 kts 289°
2026-04-29 01:03 8.48245 167.83033 8065 ft 286 kts 289°
2026-04-29 01:03 8.48963 167.81184 7765 ft 280 kts 289°
2026-04-29 01:03 8.49665 167.79371 7450 ft 275 kts 290°
2026-04-29 01:03 8.50355 167.77592 7142 ft 269 kts 290°
2026-04-29 01:04 8.51036 167.75838 6847 ft 268 kts 289°
2026-04-29 01:04 8.51722 167.74063 6559 ft 274 kts 289°
2026-04-29 01:04 8.52422 167.72255 6216 ft 278 kts 290°
2026-04-29 01:04 8.53131 167.70424 5819 ft 281 kts 290°
2026-04-29 01:05 8.53842 167.68589 5494 ft 280 kts 291°
2026-04-29 01:05 8.54551 167.66757 5187 ft 280 kts 291°
2026-04-29 01:05 8.55259 167.64929 4867 ft 279 kts 291°
2026-04-29 01:05 8.55966 167.63102 4560 ft 278 kts 291°
2026-04-29 01:06 8.56659 167.61311 4261 ft 277 kts 291°
2026-04-29 01:06 8.57364 167.59491 4036 ft 271 kts 291°
2026-04-29 01:06 8.58222 167.57867 3876 ft 263 kts 313°
2026-04-29 01:06 8.59687 167.56809 3720 ft 252 kts 340°
2026-04-29 01:07 8.61314 167.56241 3598 ft 243 kts 344°
2026-04-29 01:07 8.62897 167.55713 3461 ft 236 kts 345°
2026-04-29 01:07 8.64451 167.55467 3339 ft 219 kts 10°
2026-04-29 01:07 8.65777 167.55978 3243 ft 194 kts 41°
2026-04-29 01:08 8.66609 167.56961 3149 ft 181 kts 66°
2026-04-29 01:08 8.67110 167.58126 2988 ft 181 kts 71°
2026-04-29 01:08 8.67554 167.59290 2707 ft 178 kts 72°
2026-04-29 01:08 8.67969 167.60421 2493 ft 162 kts 72°
2026-04-29 01:09 8.68353 167.61426 2297 ft 146 kts 73°
2026-04-29 01:09 8.68670 167.62372 2060 ft 140 kts 75°
2026-04-29 01:09 8.68960 167.63298 1841 ft 137 kts 74°
2026-04-29 01:09 8.69245 167.64217 1641 ft 137 kts 73°
2026-04-29 01:10 8.69534 167.65143 1450 ft 138 kts 75°
2026-04-29 01:10 8.69814 167.66054 1269 ft 134 kts 73°
2026-04-29 01:10 8.70090 167.66944 1082 ft 132 kts 73°
2026-04-29 01:10 8.70369 167.67840 902 ft 136 kts 75°
2026-04-29 01:11 8.70650 167.68761 752 ft 134 kts 75°
2026-04-29 01:11 8.70923 167.69659 549 ft 135 kts 73°
2026-04-29 01:11 8.71205 167.70559 368 ft 137 kts 72°
2026-04-29 01:11 8.71502 167.71500 163 ft 141 kts 73°
2026-04-29 01:12 8.71791 167.72447 -24 ft 139 kts 73°
2026-04-29 01:12 8.72038 167.73249 -48 ft 91 kts 72°
2026-04-29 01:12 8.72163 167.73653 -44 ft 38 kts 72°
2026-04-29 01:12 8.72229 167.73880 -43 ft 29 kts 70°
2026-04-29 01:13 8.72306 167.73982 -33 ft 15 kts 358°
2026-04-29 01:13 8.72394 167.73956 -40 ft 14 kts 343°
2026-04-29 01:13 8.72493 167.73926 -34 ft 15 kts 343°
2026-04-29 01:13 8.72595 167.73907 -39 ft 14 kts 356°
2026-04-29 01:14 8.72695 167.73940 -34 ft 16 kts 29°
2026-04-29 01:14 8.72738 167.74017 -47 ft 13 kts 111°
2026-04-29 01:14 8.72705 167.74078 -39 ft 6 kts 119°
2026-04-29 01:14 8.72698 167.74089 -37 ft 0 kts 119°